When you browse on this site, cookies collect data to enhance your experience and personalize the content and advertising you see.
Visit our Privacy Policy to learn more. By continuing to use the site, you agree to this use of cookies and data.
  • In Portugal
  • List of Countries
  • For 7 days
  • Water Temperature
  • Satellite Maps
  • Weather Map
  • Weather Widgets
  • user-avatar
    Login

    Hourly Weather Buszkowo

    Today, 24 April, Wednesday

    Time Temperature Precipitation Wind Pressure Humidity
    00:00 +11°C° 0 mm 7 mps 752 mmHg 56%
    01:00 +10°C° 0 mm 6 mps 751 mmHg 60%
    02:00 +10°C° 0 mm 6 mps 751 mmHg 62%
    03:00 +9°C° 0 mm 6 mps 751 mmHg 64%
    04:00 +9°C° 0 mm 6 mps 751 mmHg 66%
    05:00 +10°C° 0 mm 6 mps 751 mmHg 67%
    06:00 +10°C° 0 mm 7 mps 751 mmHg 68%
    07:00 +11°C° 0 mm 7 mps 751 mmHg 68%
    08:00 +12°C° 0 mm 7 mps 751 mmHg 65%
    09:00 +15°C° 0 mm 8 mps 751 mmHg 62%
    10:00 +16°C° 0 mm 8 mps 751 mmHg 59%
    11:00 +17°C° 0 mm 7 mps 751 mmHg 58%
    12:00 +18°C° 0 mm 7 mps 751 mmHg 57%
    13:00 +20°C° 0 mm 6 mps 751 mmHg 57%
    14:00 +20°C° 0 mm 6 mps 751 mmHg 57%
    15:00 +20°C° 0 mm 6 mps 750 mmHg 57%
    16:00 +20°C° 0 mm 6 mps 750 mmHg 57%
    17:00 +19°C° 0 mm 5 mps 750 mmHg 59%
    18:00 +19°C° 0 mm 5 mps 750 mmHg 61%
    19:00 +17°C° 0 mm 5 mps 750 mmHg 63%
    20:00 +16°C° 0 mm 5 mps 750 mmHg 66%
    21:00 +16°C° 0 mm 5 mps 751 mmHg 68%
    22:00 +15°C° 0 mm 5 mps 751 mmHg 71%
    23:00 +14°C° 0 mm 5 mps 751 mmHg 73%

    Tomorrow, 25 April, Thursday

    Time Temperature Precipitation Wind Pressure Humidity
    00:00 +14°C° 0 mm 5 mps 751 mmHg 75%
    01:00 +13°C° 0 mm 5 mps 751 mmHg 76%
    02:00 +13°C° 0 mm 5 mps 750 mmHg 77%
    03:00 +13°C° 0 mm 5 mps 750 mmHg 78%
    04:00 +12°C° 0 mm 5 mps 750 mmHg 79%
    05:00 +13°C° 0 mm 5 mps 750 mmHg 77%
    06:00 +15°C° 0 mm 5 mps 750 mmHg 75%
    07:00 +16°C° 0 mm 5 mps 750 mmHg 73%
    08:00 +17°C° 0 mm 5 mps 750 mmHg 69%
    09:00 +19°C° 0 mm 5 mps 751 mmHg 65%
    10:00 +21°C° 0 mm 5 mps 751 mmHg 61%
    11:00 +21°C° 0 mm 5 mps 751 mmHg 59%
    12:00 +22°C° 0 mm 5 mps 750 mmHg 57%
    13:00 +22°C° 0 mm 4 mps 750 mmHg 56%
    14:00 +22°C° 0 mm 4 mps 750 mmHg 56%
    15:00 +22°C° 0 mm 3 mps 750 mmHg 57%
    16:00 +23°C° 0 mm 2 mps 750 mmHg 58%
    17:00 +21°C° 0 mm 2 mps 750 mmHg 64%
    18:00 +20°C° 0 mm 1 mps 750 mmHg 69%
    19:00 +19°C° 0 mm 1 mps 750 mmHg 74%
    20:00 +18°C° 0 mm 1 mps 750 mmHg 78%
    21:00 +16°C° 0 mm 1 mps 750 mmHg 81%
    22:00 +16°C° 0 mm 2 mps 750 mmHg 85%
    23:00 +15°C° 0 mm 2 mps 750 mmHg 86%

    Day after tomorrow, 26 April, Friday

    Time Temperature Precipitation Wind Pressure Humidity
    00:00 +15°C° 0 mm 2 mps 750 mmHg 87%
    01:00 +14°C° 0 mm 2 mps 750 mmHg 89%
    02:00 +14°C° 0 mm 2 mps 749 mmHg 89%
    03:00 +14°C° 0 mm 2 mps 749 mmHg 90%
    04:00 +14°C° 0 mm 2 mps 749 mmHg 91%
    05:00 +14°C° 0 mm 3 mps 749 mmHg 84%
    06:00 +16°C° 0 mm 3 mps 748 mmHg 78%
    07:00 +18°C° 0 mm 3 mps 748 mmHg 71%
    08:00 +19°C° 0 mm 3 mps 748 mmHg 65%
    09:00 +21°C° 0 mm 3 mps 748 mmHg 59%
    10:00 +24°C° 0 mm 3 mps 747 mmHg 53%
    11:00 +24°C° 0 mm 3 mps 747 mmHg 51%
    12:00 +25°C° 0 mm 4 mps 747 mmHg 48%
    13:00 +26°C° 0 mm 4 mps 746 mmHg 46%
    14:00 +26°C° 0 mm 4 mps 746 mmHg 46%
    15:00 +26°C° 0 mm 3 mps 746 mmHg 46%
    16:00 +25°C° 0 mm 3 mps 745 mmHg 47%
    17:00 +24°C° 0 mm 2 mps 745 mmHg 53%
    18:00 +22°C° 0 mm 1 mps 745 mmHg 59%
    19:00 +20°C° 0 mm 1 mps 745 mmHg 65%
    20:00 +20°C° 0 mm 1 mps 745 mmHg 66%
    21:00 +19°C° 0 mm 1 mps 746 mmHg 68%
    22:00 +18°C° 0 mm 1 mps 746 mmHg 69%
    23:00 +17°C° 0 mm 2 mps 746 mmHg 73%

    27 April, Saturday

    Time Temperature Precipitation Wind Pressure Humidity
    00:00 +16°C° 0 mm 2 mps 746 mmHg 76%
    01:00 +16°C° 0 mm 3 mps 746 mmHg 79%
    02:00 +14°C° 0.3 mm 4 mps 746 mmHg 84%
    03:00 +14°C° 0.3 mm 4 mps 747 mmHg 89%
    04:00 +13°C° 0.3 mm 5 mps 747 mmHg 95%
    05:00 +13°C° 0.2 mm 5 mps 747 mmHg 93%
    06:00 +13°C° 0.2 mm 5 mps 747 mmHg 91%
    07:00 +14°C° 0.2 mm 6 mps 748 mmHg 89%
    08:00 +13°C° 0.1 mm 6 mps 748 mmHg 88%
    09:00 +13°C° 0.1 mm 6 mps 748 mmHg 87%
    10:00 +13°C° 0.1 mm 6 mps 749 mmHg 86%
    11:00 +13°C° 0 mm 6 mps 749 mmHg 83%
    12:00 +13°C° 0 mm 5 mps 749 mmHg 81%
    13:00 +13°C° 0 mm 5 mps 749 mmHg 78%
    14:00 +13°C° 0 mm 5 mps 749 mmHg 77%
    15:00 +14°C° 0 mm 5 mps 749 mmHg 75%
    16:00 +14°C° 0 mm 5 mps 749 mmHg 74%
    17:00 +13°C° 0 mm 4 mps 749 mmHg 74%
    18:00 +13°C° 0 mm 4 mps 749 mmHg 74%
    19:00 +12°C° 0 mm 3 mps 749 mmHg 74%
    20:00 +11°C° 0 mm 3 mps 749 mmHg 78%
    21:00 +10°C° 0 mm 3 mps 749 mmHg 81%
    22:00 +9°C° 0 mm 2 mps 749 mmHg 85%
    23:00 +9°C° 0 mm 2 mps 750 mmHg 83%

    28 April, Sunday

    Time Temperature Precipitation Wind Pressure Humidity
    00:00 +8°C° 0 mm 2 mps 750 mmHg 82%
    01:00 +8°C° 0 mm 2 mps 750 mmHg 80%
    02:00 +8°C° 0 mm 3 mps 750 mmHg 79%
    03:00 +8°C° 0 mm 3 mps 750 mmHg 77%
    04:00 +8°C° 0 mm 3 mps 750 mmHg 76%
    05:00 +9°C° 0 mm 3 mps 750 mmHg 75%
    06:00 +8°C° 0 mm 4 mps 751 mmHg 74%
    07:00 +9°C° 0 mm 5 mps 751 mmHg 74%
    08:00 +12°C° 0 mm 5 mps 751 mmHg 69%
    09:00 +13°C° 0 mm 5 mps 751 mmHg 65%
    10:00 +15°C° 0 mm 5 mps 752 mmHg 60%
    11:00 +15°C° 0 mm 5 mps 752 mmHg 58%
    12:00 +16°C° 0 mm 5 mps 752 mmHg 55%
    13:00 +17°C° 0 mm 5 mps 752 mmHg 53%
    14:00 +16°C° 0.1 mm 5 mps 752 mmHg 56%
    15:00 +17°C° 0.1 mm 4 mps 752 mmHg 59%
    16:00 +17°C° 0.1 mm 4 mps 752 mmHg 62%
    17:00 +15°C° 0.3 mm 4 mps 752 mmHg 69%
    18:00 +13°C° 0.3 mm 4 mps 752 mmHg 75%
    19:00 +12°C° 0.3 mm 4 mps 752 mmHg 82%
    20:00 +12°C° 0.2 mm 4 mps 753 mmHg 84%
    21:00 +11°C° 0.2 mm 4 mps 753 mmHg 86%
    22:00 +11°C° 0.2 mm 3 mps 753 mmHg 87%
    23:00 +10°C° 0 mm 4 mps 753 mmHg 88%

    29 April, Monday

    Time Temperature Precipitation Wind Pressure Humidity
    00:00 +10°C° 0 mm 4 mps 753 mmHg 89%
    01:00 +10°C° 0 mm 4 mps 753 mmHg 90%
    02:00 +10°C° 0.1 mm 4 mps 753 mmHg 91%
    03:00 +8°C° 0.1 mm 4 mps 752 mmHg 92%
    04:00 +8°C° 0.1 mm 4 mps 752 mmHg 93%
    05:00 +10°C° 0.1 mm 4 mps 752 mmHg 92%
    06:00 +10°C° 0.1 mm 4 mps 752 mmHg 91%
    07:00 +10°C° 0.1 mm 4 mps 752 mmHg 90%
    08:00 +11°C° 0.2 mm 4 mps 752 mmHg 91%
    09:00 +11°C° 0.2 mm 4 mps 752 mmHg 91%
    10:00 +12°C° 0.2 mm 4 mps 752 mmHg 92%
    11:00 +13°C° 0.2 mm 4 mps 752 mmHg 90%
    12:00 +13°C° 0.2 mm 5 mps 752 mmHg 88%
    13:00 +14°C° 0.2 mm 5 mps 752 mmHg 86%
    14:00 +14°C° 0.2 mm 5 mps 752 mmHg 84%
    15:00 +14°C° 0.2 mm 5 mps 752 mmHg 82%
    16:00 +14°C° 0.2 mm 5 mps 752 mmHg 80%
    17:00 +14°C° 0 mm 5 mps 753 mmHg 81%
    18:00 +13°C° 0 mm 4 mps 753 mmHg 82%
    19:00 +12°C° 0 mm 4 mps 753 mmHg 84%
    20:00 +12°C° 0 mm 4 mps 754 mmHg 84%
    21:00 +11°C° 0 mm 4 mps 754 mmHg 84%
    22:00 +11°C° 0 mm 4 mps 754 mmHg 85%
    23:00 +11°C° 0 mm 4 mps 755 mmHg 80%
    Show more